Location: Unspecified
(48.2082°N, 0.0000°E)
Time: 03:33:25
(UTC+00:00)

Transit 4A - Pass Details

Date: 25 June 2019
Orbit: 866 x 978 km, 66.8° (Epoch: 13 October)

Event Time Altitude Azimuth Distance (km) Brightness Sun altitude
Rises 11:18:40 0° 295° (WNW) 3,672 10.8 63.7°
Reaches altitude 10° 11:22:35 10° 318° (NW) 2,735 10.2 63.9°
Maximum altitude 11:26:05 15° 351° (N) 2,396 10.0 64.1°
Drops below altitude 10° 11:29:35 10° 25° (NNE) 2,737 10.3 64.3°
Sets 11:33:31 0° 48° (NE) 3,677 10.9 64.5°
